OPS 4682 DEB, 38452

Orbit data source: Space-Track

OPS 4682 DEB, 38452 is space debris in LEO originally from a launch on Sat, 03 Apr 1965 UTC launched from the Air Force Western Test Range (AFWTR). Debris objects in space refer to the collection of defunct objects orbiting the Earth. Examples of debris include non-operational satellites, rocket bodies, and fragments generated from explosions, collisions, or faulty payload assembly.

Loading next visibility...
Identifier
38452, 1965-027FH
Orbit
LEO
Country
Flag of USUS
Related business
Manufacturer
Unknown
Mission
Spacecraft
Bus & Motor
Unknown
Mass
Unknown
Launch date (UTC)
1965-04-03 (61 years ago)
Launch vehicle
Unknown
Launch site
Air Force Western Test Range (AFWTR)
Object type
Payload
Rocket body
Debris
Shape & HBR
Unknown shape, 0.1 m
Radar Cross Section
Small (<0.1 m²)

Expand to show TLE details & history
Last TLE update: 1 day ago

TLE from 1 day ago
0 OPS 4682 DEB
1 38452U 65027FH  25348.47284813  .00000295  00000-0  10433-2 0  9990
2 38452  90.2442 359.3965 0014441 290.8250  69.1321 12.93934713599215
Epoch: 2025-12-14T11:20Z
TLE epoch observation values (Epoch: 2025-12-14T11:20:54.078Z)
Latitude
-0.00009°
Longitude
105.78591°
Altitude
1,284.889 km
Speed
7.215 km/s
True Right ascension
23h 57m 35s
True Declination
0° 00' 00"
Sunlit
Object was in daylight at epoch
Visualization orbit readout
Latitude
Unknown
Longitude
Unknown
Altitude
Unknown
Speed
Unknown
Apparent Right ascension
Unknown
Apparent Declination
Unknown
Sunlit
N/A
Visualization observer readout
Local Sidereal Time
16:52:21
Azimuth
Unknown
Elevation
Unknown
Doppler factor
Unknown
Orbital elements
Apogee altitude
1,294.143 km
Perigee altitude
1,272.016 km
Semi-major axis
7,661.217 km
Eccentricity
0.00144
Inclination
90.2442°
RAAN
359.3965°
Arg. of periapsis
290.825°
True anomaly
69.28683°
Mean anomaly
69.1321°
Eccentric anomaly
69.20945°
Mean motion
3.23666 °/min
Orbital period
111.23 mins
BSTAR
0.0010433
Loading maneuver chart data...
Computing Atmospheric mass density...
Loading historical data...
Loading historical data...
Loading historical data...
Loading historical data...
Loading historical data...
Loading historical data...
Loading historical data...

Documentation

Showing up to 5 results
|